Location: *
(49.5667°N, 1.3667°W)
Time: 15:38:45
(UTC+00:00)

SPOT 3 Rocket - Pass Details

Date: 20 September 2019
Orbit: 780 x 794 km, 98.8° (Epoch: 18 October)

Event Time Altitude Azimuth Distance (km) Brightness Sun altitude
Exits shadow 19:10:35 - 146° (SE) 2,751 5.9 -10.8°
Reaches altitude 10° 19:11:39 10° 144° (SE) 2,330 5.5 -10.9°
Maximum altitude 19:16:38 53° 68° (ENE) 954 3.7 -11.7°
Drops below altitude 10° 19:21:40 10° 353° (N) 2,348 6.3 -12.5°
Sets 19:24:02 0° 349° (N) 3,281 7.2 -12.9°
